Location: El Cují
(9.9833°N, 67.4333°W)
Time: 05:19:57
(UTC+00:00)

Daily predictions for brighter satellites

Satellite Brightness Start Highest point End
(mag) Time Altitude Azimuth Time Altitude Azimuth Time Altitude Azimuth
ATLAS CENTAUR R/B 1.9 00:06:15 30° ENE 00:06:15 30° ENE 00:08:22 10° NE
YAOGAN 1 4.1 00:03:14 10° SSW 00:07:07 34° W 00:11:00 10° NW
Cosmos 1980 Rocket 3.9 00:04:04 10° NE 00:07:07 15° ENE 00:07:07 15° ENE
Ariane H10+ 4.1 00:03:01 10° SW 00:09:46 41° SSE 00:17:44 24° ESE
Timation 1 Rocket 4.5 00:04:33 10° S 00:10:14 47° ESE 00:15:53 10° NNE
USA 59 Rocket 3.0 00:11:22 10° WNW 00:16:56 29° WSW 00:24:05 10° S
Cosmos 1633 Rocket 3.8 00:14:34 10° NNE 00:18:01 34° ENE 00:18:01 34° ENE
DELTA 2 DEB (DPAF) 4.0 00:15:17 10° N 00:19:28 78° WNW 00:23:35 10° SSW
deb Centaur AC-2 4.3 00:14:43 10° WNW 00:20:26 88° SSW 00:21:51 48° ESE
H-2A R/B 3.8 00:18:14 10° WSW 00:20:32 13° SW 00:22:23 10° SSW
Okean O Rocket 3.1 00:23:09 23° NE 00:23:09 23° NE 00:25:38 10° NNE
OAO 3 Rocket 3.0 00:17:57 10° NW 00:22:34 76° NE 00:23:31 55° ESE
Cosmos 2360 4.2 00:17:02 10° NNW 00:22:43 80° WSW 00:25:51 28° S
SJ-6B 3.1 00:22:36 34° SSW 00:23:52 55° WSW 00:27:24 10° NNW
KORONAS-FOTON 4.0 00:28:44 56° NNE 00:28:44 56° NNE 00:31:45 10° N
CZ-4B R/B 3.2 00:27:17 48° ESE 00:28:18 56° ENE 00:33:27 10° N
BlueWalker 3 4.3 00:25:04 10° SSW 00:25:32 13° SSW 00:25:32 13° SSW
USA 186 2.9 00:30:52 38° N 00:30:52 38° N 00:33:02 10° N
BREEZE-M DEB (TANK) 4.3 00:21:46 10° SW 00:33:23 83° NW 00:36:08 19° NE
Cosmos 1842 3.4 00:35:02 64° NW 00:35:02 64° NW 00:38:16 10° N
Meteor 2-12 Rocket 4.3 00:34:38 22° S 00:38:47 88° E 00:44:57 10° N
Lacrosse 5 rocket 1.5 00:35:02 10° NNW 00:38:33 66° NW 00:38:33 66° NW
CZ-4 R/B 2.3 00:40:06 38° SW 00:40:49 42° W 00:44:34 10° NNW
Cosmos 1666 Rocket 3.5 00:36:39 10° N 00:41:00 79° W 00:41:07 78° WSW
In-Cosmos 22 4.5 00:43:03 49° ENE 00:43:03 49° ENE 00:47:43 10° NNE
ATLAS CENTAUR R/B 4.2 00:35:45 10° NW 00:48:06 71° WSW 00:51:59 37° S
Resurs 01 Rocket 2.1 00:53:31 58° NNW 00:53:31 58° NNW 00:57:05 10° NNW
MOS 1-B Rocket 4.1 01:00:49 68° SSE 01:01:47 89° E 01:07:54 10° NNW
Feng Yun 1-1 Rocket 4.5 01:01:05 63° SSW 01:01:52 72° WSW 01:07:41 10° NNW
GOES 2 Rocket 4.4 00:57:02 10° WSW 01:04:17 56° NNW 01:06:12 39° NNE
GPS 2-15 Rocket1 4.1 01:02:17 10° W 01:06:11 45° NW 01:06:11 45° NW
NOSS 3-4 (A) 4.2 01:07:02 10° NNW 01:15:02 73° WSW 01:16:45 59° S
NOSS 3-4 (C) 4.2 01:07:05 10° NNW 01:15:03 74° WSW 01:16:39 60° S
CSL-04 Rocket 4.4 01:19:49 47° W 01:19:49 47° W 01:24:17 10° NNW
Orbus 21S 4.3 01:16:47 10° NW 01:20:38 47° NNE 01:20:48 47° NE
Cosmos 1980 Rocket 3.9 01:45:49 10° NW 01:48:55 28° WNW 01:48:55 28° WNW
SL-16 R/B 3.5 07:14:14 43° ENE 07:14:14 43° ENE 07:19:30 10° N
Cosmos 1943 Rocket 4.2 07:35:28 18° SE 07:37:00 20° ESE 07:40:57 10° ENE
Ariane V96 H10-3 4.3 07:48:58 56° SE 07:48:58 56° SE 08:01:10 10° E
GPS 2-15 Rocket1 3.9 08:05:59 44° ESE 08:05:59 44° ESE 08:09:16 10° ESE
Cosmos 2278 Rocket 2.0 08:07:32 79° S 08:07:53 86° ESE 08:13:33 10° NNE
NOSS 3-1 (C) 3.0 08:08:45 59° ESE 08:08:45 59° ESE 08:13:10 10° NNE
H-2A R/B 3.1 08:03:52 10° NNE 08:08:40 40° E 08:10:51 26° SSE
Cosmos 1602 Rocket 4.4 08:10:56 44° N 08:10:56 44° N 08:14:00 10° N
Lacrosse 5 2.3 08:11:32 48° NNW 08:11:32 48° NNW 08:15:43 10° NNE
IRS-1D 3.6 08:08:22 10° N 08:12:48 61° NW 08:12:48 61° NW
GPS 2-17 Rocket1 3.2 08:16:32 66° ESE 08:16:32 66° ESE 08:20:51 10° ENE
SWIFT 3.3 08:16:15 39° NNE 08:16:19 40° NNE 08:20:04 10° E
Cosmos 2100 Rocket 4.0 08:15:40 32° S 08:18:46 77° E 08:24:57 10° N
Cosmos 1153 Rocket 4.5 08:19:30 55° W 08:19:53 56° W 08:25:51 10° N
CZ-2C R/B 3.5 08:17:24 10° N 08:20:01 28° NW 08:20:01 28° NW
Cosmos 1862 4.3 08:24:17 34° NNW 08:24:17 34° NNW 08:26:35 10° N
OAO 2 Rocket 4.3 08:23:37 33° NW 08:24:03 34° NNW 08:28:32 10° NNE
Yuri Rocket 4.5 08:21:41 47° SW 08:24:10 79° SSE 08:33:49 10° ENE
Cosmos 1048 Rocket 4.5 08:21:24 10° NNW 08:25:24 43° WNW 08:25:24 43° WNW
NOSS 3-1 (A) 4.4 08:24:09 18° SSE 08:26:36 27° ESE 08:30:32 10° NE
USA 290 3.2 08:29:35 42° E 08:29:35 42° E 08:32:37 10° NNE
Centaur AC-72 4.3 07:35:54 10° WNW 08:31:36 84° SSW 08:39:06 10° ESE
ATLAS 3B R/B 3.9 08:26:50 12° S 08:32:19 36° ESE 08:38:32 10° NE
Ariane H10-3 4.2 08:09:24 10° W 08:33:14 40° SSW 08:37:51 10° SE
CSL-04 DEB 4.2 08:33:30 10° NNE 08:37:15 80° ESE 08:38:04 53° S
Cosmos 1939 Rocket 3.6 08:35:26 10° NNE 08:39:11 48° E 08:41:31 21° SSE
Cosmos 2016 Rocket 4.4 08:33:21 10° S 08:39:25 62° E 08:45:34 10° NNE
Cosmos 1607 3.9 08:35:33 10° NNW 08:41:48 86° ENE 08:47:55 10° SSE
ISS -3.9 08:42:17 78° NNW 08:42:17 78° NNW 08:45:31 10° NNE
Cosmos 1484 Rocket 2.7 08:38:29 10° NNE 08:42:14 80° E 08:43:29 40° S
GOES 2 Rocket 4.4 08:40:37 10° NW 08:44:47 42° NNE 08:49:50 10° E
Cosmos 1809 Rocket 4.4 08:42:10 10° N 08:48:16 89° E 08:54:24 10° S
Cosmos 2084 3.9 08:49:43 38° W 08:50:33 43° WNW 08:54:34 10° N
DMSP B5D2-2 4.0 08:46:48 10° S 08:52:03 78° WSW 08:57:18 10° NNW
Cosmos 2151 2.9 08:51:03 17° S 08:54:13 80° E 08:58:19 10° N
H-2A R/B 3.7 08:51:13 10° NNE 08:54:14 37° E 08:57:15 10° S
Meteor 2-8 Rocket 4.4 08:48:33 11° S 08:54:30 80° W 09:00:38 10° N
SL-16 R/B 4.2 08:59:19 14° WNW 08:59:19 14° WNW 09:00:43 10° WNW
Cosmos 1515 3.5 08:56:24 10° NNW 08:59:45 50° W 09:01:12 29° SSW
USA 305 2.4 08:59:36 41° WSW 09:00:21 52° WNW 09:03:18 10° NNE
Cosmos 1378 2.6 08:57:35 10° N 09:00:49 81° W 09:03:46 12° S
Cosmos 2346 Rocket 4.4 08:56:20 10° NNW 09:02:19 66° W 09:08:20 10° S
CBERS-1 4.3 09:04:02 10° N 09:08:56 48° WNW 09:13:02 15° SSW
Cosmos 1782 3.6 09:06:03 10° NNW 09:09:19 28° W 09:10:23 24° WSW
Cosmos 1666 4.3 09:11:54 16° WNW 09:11:54 16° WNW 09:13:34 10° NW
BREEZE-M DEB (TANK) 3.1 09:09:37 10° WNW 09:12:43 53° SW 09:21:58 10° SSE
Cosmos 1833 Rocket 4.0 09:08:36 10° N 09:13:56 44° ENE 09:19:16 10° SE
Cosmos 44 4.1 09:12:27 19° SW 09:15:44 38° WNW 09:20:41 10° N
Meteor 1-26 Rocket 4.1 09:11:04 10° N 09:16:26 85° W 09:21:53 10° S
Cosmos 1943 Rocket 3.1 09:17:02 17° WSW 09:20:24 29° WNW 09:25:15 10° NNW
Cosmos 1076 Rocket 3.5 09:20:54 10° SSW 09:25:03 61° W 09:29:11 10° N
SL-08 RB Rocket 3.7 09:22:00 10° NNE 09:26:28 84° E 09:31:00 10° S
ARGOS 3.2 09:24:19 10° N 09:29:38 63° WNW 09:35:00 10° SSW
Hubble Space Telescope 3.2 09:29:17 10° SSE 09:30:31 11° SSE 09:31:45 10° SE
Cosmos 614 Rocket 3.9 09:26:48 10° NNW 09:31:47 59° WSW 09:36:44 10° S
NOAA 12 4.2 09:26:53 10° NNE 09:32:12 88° ESE 09:37:31 10° SSW
BREEZE-M DEB (TANK) 2.6 09:26:36 10° NW 09:33:03 89° NNE 09:35:41 10° SE
ARIANE 5 R/B 2.9 09:32:40 11° SW 09:34:18 20° SSE 09:37:15 10° ESE
ARIANE 5 DEB (SYLDA) 4.2 09:28:08 10° W 09:36:57 48° S 09:40:45 10° ESE
Cosmos 1371 Rocket 4.4 09:33:04 10° S 09:38:15 70° ESE 09:43:30 10° NNE
Centaur Rocket 1.3 09:36:40 12° W 09:38:26 70° NNW 09:40:48 10° ENE
USA 307 3.9 09:42:37 10° WSW 09:45:29 21° WNW 09:48:06 10° N
ARIANE 5 R/B 3.5 09:45:32 10° SW 09:46:59 12° SSW 09:48:06 10° SSE
H-2A R/B 3.9 09:45:38 10° NW 09:47:36 12° WNW 09:49:33 10° W
GPS 2-15 Rocket1 4.2 09:44:24 10° W 09:48:26 27° SSW 09:52:25 10° SE
Cosmos 1656 Rocket 3.6 09:43:35 10° SSW 09:49:00 86° WNW 09:54:24 10° NNE
SJ-11-01 4.3 09:46:00 10° N 09:50:38 81° WNW 09:55:16 10° SSW
